Weather Service Report


825 
ASUS44 KEWX 190810
RWRTX 
SOUTH TEXAS REGIONAL WEATHER ROUNDUP
NATIONAL WEATHER SERVICE AUSTIN/SAN ANTONIO TX
200 AM CST FRI DEC 19 2014

NOTE: "FAIR" INDICATED FEW OR NO CLOUDS BELOW 12,000 FEET WITH NO
SIGNIFICANT WEATHER AND/OR OBSTRUCTIONS TO VISIBILITY.

* - THESE STATIONS ARE NOT NWS OR FAA STATIONS...AND ARE NOT SUBJECT
    TO NWS AND FAA QUALITY CONTROL.
 
TXZ171-172-183>190-190900-
TEXAS HILL COUNTRY AND EDWARDS PLATEAU
  
CITY           SKY/WX    TMP DP  RH WIND       PRES   REMARKS
JUNCTION       LGT RAIN  51  50  96 E14       30.07S FOG              
*LLANO         CLOUDY    48  46  93 CALM      30.13S                  
BURNET         CLOUDY    47  45  93 NE7       30.10F FOG     WCI  44  
*HORSESHOE BAY CLOUDY    49  49 100 N6        30.08F FOG     WCI  46  
*KERRVILLE     CLOUDY    51  49  93 NE7       30.05F FOG              
*FREDERICKSBRG CLOUDY    49  47  92 NE7       30.06F WCI  46          
*ROCKSPRINGS   CLOUDY    57  55  94 E3        30.06S                  
*BOERNE STAGE  CLOUDY    50  48  93 NE5       30.05F WCI  48          
*CASTROVILLE   CLOUDY    56  55  96 NE8       30.04S                  
HONDO          CLOUDY    58  56  93 NE10      30.03F                  
*UVALDE        CLOUDY    55  54  94 E7        30.02S                  
DEL RIO        CLOUDY    61  56  83 CALM      30.01S                  
LAUGHLIN AFB   CLOUDY    61  55  82 NE3       30.02S                  
CARRIZO SPRGS  CLOUDY    59  57  94 E5        29.98F FOG              
$$

TXZ173-191>194-202-209-217>225-228-190900-
CENTRAL AND SOUTH CENTRAL TEXAS
  
CITY           SKY/WX    TMP DP  RH WIND       PRES   REMARKS
GEORGETOWN     CLOUDY    48  46  93 N12G17    30.07F WCI  43          
AUSTIN/BERGSTM TSTM      50  50 100 N8        30.06F FOG     WCI  47  
AUSTIN/MABRY   TSTM      50  48  93 N7        30.07F FOG     WCI  47  
*AUSTIN/EXEC   CLOUDY    48  48 100 N12       30.08F FOG     WCI  43  
*LAGO VISTA    HVY RAIN  48  46  95 N13       30.06F WCI  42          
SAN MARCOS     CLOUDY    52  48  87 N14       30.06S                  
NEW BRAUNFELS  LGT RAIN  53  32  44 NE10      30.04F                  
RANDOLPH AFB   CLOUDY    54  52  94 N13       30.03F                  
PT SAN ANTONIO CLOUDY    55  54  98 N13       30.00F                  
SAN ANTONIO    LGT RAIN  54  51  90 N10       30.03F FOG              
STINSON FIELD  CLOUDY    55  53  93 N9        30.01F                  
*PLEASANTON    CLOUDY    56  55  96 NE8G16    30.01F                  
*LA GRANGE     CLOUDY    55  54  97 N8        30.02F                  
*GIDDINGS      HVY RAIN  51  50  97 N7        30.09F                  
*GONZALES      RAIN      54  54  98 N8G16     30.03F                  
$$

TXZ163>164-176>182-195>201-210>213-226-227-235-190900-
SOUTHEAST TEXAS
  
CITY           SKY/WX    TMP DP  RH WIND       PRES   REMARKS
COLLEGE STN    HVY RAIN  52  52 100 N9        30.08R FOG              
*BRYAN         RAIN      51  51  99 N7        30.10R                  
*CALDWELL      RAIN      50  50 100 N8        30.09F WCI  47          
*CROCKETT      CLOUDY    54  54 100 NE7       30.13R                  
*BRENHAM       TSTM      56  55  96 N8        30.04F                  
HUNTSVILLE     HVY RAIN  53  52  96 NE5       30.07F FOG              
CONROE         LGT RAIN  55  54  96 NE10      30.01F                  
HOUSTON BUSH   TSTM      57  57 100 NE10      30.01F FOG              
HOUSTON HOBBY  LGT RAIN  59  57  94 N15       30.03R FOG              
*HOUSTON SW AP DRIZZLE   51  51 100 N9        30.04R                  
PEARLAND       RAIN      60  59  96 NE9       30.04R FOG              
HOUSTON HOOKS  NOT AVBL                                               
ELLINGTON FLD  NOT AVBL                                               
SUGAR LAND     LGT RAIN  60  58  92 E12       30.02S                  
*HOUSTON EXEC  RAIN      59  59 100 NE9       30.02S                  
*CLEVELAND MUN NOT AVBL                                               
*WHARTON       HVY RAIN  61  61  97 N8        30.01S                  
*COLUMBUS      DRIZZLE   57  57  98 N6        30.02S                  
$$

TXZ214>216-236>238-190900-
THE UPPER TEXAS COAST
  
CITY           SKY/WX    TMP DP  RH WIND       PRES   REMARKS
*ORANGE        TSTM      56  55  98 NW9       30.08R                  
PORT ARTHUR    RAIN      57  56  96 N13       30.03R FOG              
GALVESTON      CLOUDY    62  62 100 E12       30.01R                  
ANGLETON       CLOUDY    62  62 100 NE5       30.00S                  
*BAY CITY        N/A     64  64 100 E3        29.99S FOG              
PALACIOS       NOT AVBL                                               
$$

TXZ229>234-239>247-190900-
TEXAS COASTAL BEND AND RIO GRANDE PLAINS
  
CITY           SKY/WX    TMP DP  RH WIND       PRES   REMARKS
VICTORIA       CLOUDY    65  63  93 NE6       29.99F FOG              
*BEEVILLE      RAIN      62  62 100 N9        29.98S                  
ROCKPORT       CLOUDY    69  67  93 S5        29.97F                  
*PORT ARANSAS  MOCLDY    66  65  96 S6        29.96F                  
*PORT LAVACA   CLOUDY    65  64  98 E7        29.98F FOG              
*INGLESIDE     CLOUDY    69  66  89 S9        29.96F                  
CORPUS CHRISTI MOCLDY    68  67  96 S9        29.95F                  
CORPUS NAS     CLOUDY    70  68  93 S9        29.96F                  
*ROBSTOWN      NOT AVBL                                               
ALICE          LGT RAIN  69  67  93 S6        29.95F FOG              
KINGSVILLE NAS CLOUDY    69  69 100 SE5       29.95F                  
COTULLA        CLOUDY    59  58  96 E9        29.99F FOG              
LAREDO         NOT AVBL                                               
$$

TXZ248>255-190900-
DEEP SOUTH TEXAS
  
CITY           SKY/WX    TMP DP  RH WIND       PRES   REMARKS
BROWNSVILLE    CLOUDY    70  67  90 S6        29.97R                  
PORT ISABEL    CLOUDY    70  67  90 S5        29.96S                  
*SOUTH PADRE   CLOUDY   N/A N/A N/A CALM      29.96S                  
HARLINGEN      CLOUDY    66  66 100 W3        29.96S FOG              
*HEBBRONVILLE  CLOUDY    63  63  97 W3        29.98F VSB 3/4          
MCALLEN        CLOUDY    62  61  96 CALM      29.97F FOG              
*WESLACO       CLOUDY    64  62  94 CALM      29.96F                  
FALFURRIAS     CLOUDY    68  67  96 CALM      29.97S                  
EDINBURG       CLOUDY    66  64  91 SW5       29.97F                  
*ZAPATA        CLOUDY    61  61 100 CALM      29.97F FOG              
$$

TXZ213>215-236>238-242>244-246-247-251-254-255-190900-
CMAN STATIONS
  
STATION/POSITION TIME  TEMP    WIND        PRES    WAVE
                       AIR SEA DIR/SP/G            HT/PER
                 (UTC) (F)     (DEG/KT/KT) (MB)    (FT/S)
SABINE PASS      0800   57 61   70/  8/ 10 1016.3
SEA RIM ST PARK  0800   56      80/ 10/ 11 1016.8
NORTH JETTY/GLS  0800   62 62  130/ 18/ 20   N/A
EAGLE POINT      0800   61 63  120/ 12/ 15 1016.1
MORGANS POINT    0800   59      20/  7/ 10 1016.7
MISSION/ARANSAS  0700   68     160/  3     1016.0
PORT O'CONNOR    0800          100/  4/  5   N/A
PORT ARANSAS     0800   67 66  140/  8/  8 1014.8
MALAQUITE BEACH  0800   68 69  140/  9/  9 1014.1
BAFFIN BAY       0800   69     150/  7/ 10 1014.5
PORT ISABEL      0800   71 69  150/  6/  8 1014.6
$$

GMZ080-GMZ150>470-190900-
OFFSHORE BUOY REPORTS
  
STATION/POSITION TIME  TEMP    WIND        PRES    WAVE
                       AIR SEA DIR/SP/G            HT/PER
                 (UTC) (F)     (DEG/KT/KT) (MB)    (FT/S)
20 E GALVESTON   0800   64 65   90/ 14/ 17 1015.1    4/ 4
90 E PT ARANSAS  0800   72 72  170/ 12/ 16 1015.2    4/ 6
35 NE PT MANSFLD 0800   72 72  170/ 10/ 12 1014.8    3/ 6
200 E PT ISABEL  0800   73 73  150/ 12/ 16 1015.8    3/ 6
$$

Return to Home page


Western Regional Climate Center, wrcc@dri.edu